STARLINK-35658, 66126

Orbit data source: Space-Track

STARLINK-35658, 66126 is a payload satellite owned by SpaceX/Seattle (US) in LEO that was launched on Wed, 22 Oct 2025 UTC via an FALCON 9 launch vehicle from the Air Force Western Test Range (AFWTR). Payload-class satellites include a variety of spacecraft equipped with specific instruments for various scientific and technological missions. These include communications satellites like Starlink; space stations such as the ISS; scientific satellites like the Hubble; Earth observation satellites from companies like Planet Labs, Umbra, and HawkEye 360; GPS; miniature CubeSats for education and research; and military/defense satellites.

Loading next visibility...
Identifier
66126, 2025-237N
Orbit
LEO
Country
Flag of USUS
Related business
Manufacturer
SpaceX/Seattle
Mission
Operational Commercial Communications
Bus & Motor
STARLINK V2MO, Unknown motor
Mass
575 kg wet, ~530 kg dry
Launch date (UTC)
2025-10-22 (4 months ago)
Launch vehicle
FALCON 9
Launch site
Air Force Western Test Range (AFWTR)
Object type
Payload
Rocket body
Debris
Shape & HBR
Box + 2 Pan, 17.7 m
Radar Cross Section
36.964 m²

Expand to show TLE details & history
Last TLE update: 20 hours ago

TLE from 20 hours ago
0 STARLINK-35658
1 66126U 25237N   26061.30584251  .00017814  00000-0  61177-3 0  9999
2 66126  53.1605  73.6666 0001345  73.6698 286.4451 15.30220221 21471
Epoch: 2026-03-02T07:20Z
TLE epoch observation values (Epoch: 2026-03-02T07:20:24.792Z)
Latitude
-0.00001°
Longitude
163.46214°
Altitude
475.794 km
Speed
7.629 km/s
True Right ascension
04h 54m 39s
True Declination
0° 00' 00"
Sunlit
Object was in daylight at epoch
Visualization orbit readout
Latitude
Unknown
Longitude
Unknown
Altitude
Unknown
Speed
Unknown
Apparent Right ascension
Unknown
Apparent Declination
Unknown
Sunlit
N/A
Visualization observer readout
Local Sidereal Time
07:14:37
Azimuth
Unknown
Elevation
Unknown
Doppler factor
Unknown
Orbital elements
Apogee altitude
476.333 km
Perigee altitude
474.489 km
Semi-major axis
6,853.548 km
Eccentricity
0.00013
Inclination
53.1605°
RAAN
73.6666°
Arg. of periapsis
73.6698°
True anomaly
286.43032°
Mean anomaly
286.4451°
Eccentric anomaly
286.43771°
Mean motion
3.82534 °/min
Orbital period
94.11 mins
BSTAR
0.00061177
Loading maneuver chart data...
Computing Atmospheric mass density...
Loading historical data...
Loading historical data...
Loading historical data...
Loading historical data...
Loading historical data...
Loading historical data...
Loading historical data...

Documentation

Showing up to 5 results
|